EW0050 Weather Reports


time (UTC)temp
C
wind
direction
speed
KPH
gust
KPH
rain 1hr
cm
rain 24hr
cm
rain mn
cm
humidity
%
barometer
mb
20260505035919 14 76 6.4 14.5 0.00 5.51 0.00 92 1009.7
20260505032957 13 51 4.8 11.3 0.00 5.51 0.00 92 1009.7
20260505025930 13 81 4.8 22.5 0.00 5.51 0.00 92 1010.0
20260505022920 13 127 4.8 11.3 1.30 5.51 1.09 92 1010.3
20260505015931 13 82 4.8 14.5 1.30 5.51 1.09 92 1010.1
20260505012920 13 59 4.8 16.1 0.00 4.19 0.84 92 1010.1
20260505005921 13 111 4.8 14.5 0.00 4.19 0.84 91 1010.4
20260505002915 13 69 9.7 24.1 0.20 4.19 0.84 91 1010.9
20260504235926 13 109 6.4 19.3 0.71 4.19 0.84 91 1011.1
20260504232917 14 75 16.1 33.8 0.89 3.99 0.79 90 1011.2
20260504225914 14 66 12.9 35.4 1.91 3.51 0.71 89 1010.9
20260504222924 14 59 12.9 25.7 1.60 3.10 0.61 87 1011.2
20260504215942 15 121 11.3 24.1 0.10 1.60 0.33 84 1011.9
20260504212935 15 74 12.9 35.4 0.00 1.50 0.30 83 1012.2
20260504205952 15 80 12.9 29.0 0.00 1.50 0.30 82 1012.0
20260504202921 15 61 11.3 27.4 0.00 1.50 0.30 80 1012.0
20260504195912 15 129 9.7 25.7 0.00 1.50 0.30 77 1012.7
20260504192919 15 87 14.5 25.7 0.00 1.50 0.30 76 1012.6
20260504185918 15 96 9.7 22.5 0.00 1.50 0.30 77 1012.5
20260504182929 15 78 12.9 27.4 0.00 1.50 0.30 79 1012.4
20260504175920 15 90 8.0 25.7 0.10 1.50 0.30 83 1012.4
20260504172936 15 90 14.5 29.0 0.10 1.50 0.30 80 1012.5
20260504045944 15 92 3.2 16.1 0.71 0.71 0.15 78 1015.3